GFSGL_700_spd_021.txt.gz
Wind_Speed
2 2 4 3 5 10 8 7 8 9 8 10 11 12 12 12 10 10 13 15 15 18 20 19 19 16 12 14 16 12 10 15 19 20 23 28 24 23 29 23 25 18 16
1 2 2 4 5 8 8 10 10 11 10 11 11 13 13 13 13 10 11 14 18 19 16 17 19 17 14 15 13 14 8 12 16 20 22 25 26 29 22 26 20 18 12
1 3 4 5 4 6 9 12 14 11 10 12 13 13 13 13 14 16 18 16 16 16 15 15 16 16 14 14 14 16 6 12 15 21 30 26 22 23 20 23 19 14 9
3 3 5 6 6 6 9 13 15 15 14 12 12 13 14 17 18 17 17 14 18 17 16 16 13 13 12 13 10 14 9 21 18 22 24 23 27 26 20 17 13 12 10
5 5 9 8 9 10 10 11 13 12 10 10 10 12 14 15 15 15 16 15 18 12 10 13 17 15 12 18 17 12 13 27 29 31 30 25 23 20 17 15 14 12 10
7 7 9 10 12 10 11 12 12 11 9 8 14 10 14 14 19 18 15 18 15 12 11 15 20 15 20 14 13 22 26 27 28 26 25 23 20 19 18 16 14 12 10
8 8 9 10 12 10 9 11 13 16 17 16 18 16 13 7 12 6 5 18 15 16 18 17 19 21 19 25 23 30 30 25 24 21 20 21 20 19 18 16 12 8 3
9 10 10 10 12 12 11 11 11 12 14 13 13 17 20 23 24 25 21 19 22 24 18 19 27 27 28 27 24 25 24 24 25 27 25 24 23 19 15 10 6 2 3
8 10 11 11 12 13 11 10 11 12 13 14 14 15 18 17 21 25 24 33 35 34 29 26 25 24 24 22 23 23 25 27 27 28 25 21 17 13 9 6 1 4 7
7 10 11 12 11 10 12 10 9 10 11 13 14 16 16 15 17 21 21 20 22 25 27 26 24 21 22 21 22 24 24 25 25 23 19 15 13 9 4 2 2 6 11
7 8 11 11 11 11 9 9 9 9 10 12 13 13 15 16 17 19 20 19 18 18 21 22 23 23 22 24 25 25 25 21 19 17 15 12 8 5 2 4 7 13 19
9 8 9 11 11 12 11 8 8 9 10 10 12 13 14 16 17 17 18 19 19 17 18 19 20 22 25 24 24 24 23 20 17 14 10 6 5 4 5 8 13 17 24
12 11 10 11 11 11 11 10 9 9 9 12 12 13 15 15 15 17 18 18 19 21 21 21 22 22 21 22 23 21 19 16 12 8 6 6 8 9 11 14 17 21 28
12 14 13 12 12 11 12 12 11 10 11 10 11 13 15 16 16 15 15 15 15 16 16 17 17 18 20 20 18 16 14 12 11 8 7 9 12 13 16 17 21 24 29
16 14 16 16 15 14 13 13 13 13 12 11 12 13 14 14 15 16 16 16 16 16 15 16 16 17 18 17 16 15 14 12 10 10 12 13 15 18 18 20 23 26 30
19 18 15 18 18 18 16 15 13 13 14 14 14 15 16 19 19 18 17 17 16 15 15 15 16 17 17 16 16 15 13 12 13 14 15 16 17 19 21 23 26 28 33
16 18 19 16 17 18 17 17 16 14 14 14 14 15 15 17 19 20 20 20 19 18 16 17 18 18 18 18 18 17 15 15 16 17 17 19 21 22 24 26 29 35 28
16 14 12 15 17 14 14 15 16 15 14 13 13 14 17 18 20 22 23 22 21 17 16 16 16 17 19 19 18 16 16 17 17 19 21 23 24 26 28 29 29 27 30
20 18 15 13 12 13 16 16 15 15 14 15 16 16 16 17 19 22 23 21 20 18 18 18 17 18 19 20 20 20 19 19 20 23 24 25 26 29 30 30 28 28 23
24 22 21 19 18 17 15 13 12 13 15 17 18 17 19 20 20 20 20 20 19 18 20 21 20 21 22 24 24 24 24 25 24 27 27 28 30 33 32 32 21 20 15
24 23 23 24 24 24 24 22 19 17 15 14 14 19 21 21 22 23 23 23 21 20 20 21 24 25 26 27 27 25 29 31 30 31 33 34 34 36 37 32 30 21 16
25 25 22 21 20 24 27 27 26 26 25 23 20 18 19 25 26 26 27 27 26 26 25 25 26 27 28 29 31 32 32 35 42 37 38 40 39 38 44 45 33 16 18
22 19 17 16 15 16 21 25 27 26 25 25 25 24 24 23 22 24 27 28 29 31 30 30 32 33 32 33 36 36 36 45 47 43 40 43 45 46 44 43 19 15 20
19 19 20 19 18 16 15 19 21 23 24 25 25 25 25 26 28 27 25 26 26 25 24 26 26 27 26 30 34 37 42 44 52 38 42 48 53 50 50 32 18 17 20
25 26 27 27 26 23 19 16 15 17 20 23 23 22 21 20 21 23 26 29 31 30 28 28 29 31 32 32 33 38 42 45 52 50 49 45 49 57 39 25 18 21 20
33 32 30 29 31 29 27 24 21 19 20 22 24 25 25 24 24 25 26 25 24 28 30 31 32 33 35 38 41 43 45 51 52 55 54 53 52 50 30 21 19 20 18

GFSGL_700_spd_024.txt.gz
Wind_Speed
5 5 3 2 4 6 2 3 7 8 10 11 12 12 11 10 10 10 12 13 12 14 16 15 16 15 13 15 9 11 5 8 11 7 20 32 24 27 34 29 24 21 16
4 2 2 1 4 5 6 5 9 9 9 11 14 13 11 9 9 10 12 13 12 15 18 19 17 11 14 13 11 10 2 7 11 17 21 29 26 25 26 29 26 19 16
1 2 1 2 4 5 8 7 6 7 10 11 12 13 12 11 9 11 13 14 17 17 16 17 16 12 13 13 11 9 5 12 19 16 21 30 23 27 25 30 23 13 12
2 4 3 5 6 8 8 10 11 11 11 9 9 10 11 11 12 16 16 17 16 14 15 16 16 13 11 9 11 15 4 14 18 23 23 26 23 29 23 25 19 13 13
4 6 5 8 9 9 8 8 12 13 11 9 9 10 12 15 15 15 13 14 15 12 14 14 14 14 12 13 9 12 8 14 21 26 23 27 27 25 24 20 18 14 12
6 8 7 8 9 11 8 7 8 12 10 10 8 10 11 13 14 15 15 16 14 11 11 12 12 11 13 15 16 11 17 19 28 22 24 29 28 24 22 20 17 15 12
7 9 8 7 8 10 11 12 13 13 13 11 11 6 7 11 20 17 15 15 14 12 9 11 16 14 14 11 19 17 26 30 34 30 27 25 23 21 20 19 17 13 8
9 11 10 7 6 8 11 12 11 11 12 14 16 20 14 10 16 20 16 20 15 12 12 13 17 12 16 26 24 30 28 29 30 31 28 25 24 23 21 16 12 9 6
10 12 12 9 7 6 9 11 11 10 11 17 19 18 20 25 18 14 17 18 16 17 16 21 24 20 22 26 29 27 26 26 25 27 27 26 23 19 15 12 10 6 2
8 10 12 10 8 6 6 8 10 12 13 13 14 14 18 20 22 28 24 19 21 24 31 30 29 29 27 26 23 21 21 23 24 24 24 21 18 16 12 8 4 1 3
7 9 11 11 10 8 5 5 9 9 12 12 13 15 16 18 21 22 25 22 22 23 24 26 26 25 24 21 24 25 24 24 24 22 18 17 14 10 6 5 5 5 8
8 9 10 10 9 8 10 7 7 8 10 11 10 12 15 17 19 20 21 22 18 18 19 20 20 19 22 25 26 26 26 23 20 19 17 14 11 9 6 4 6 9 12
11 9 10 11 11 9 8 8 9 8 9 11 11 12 13 15 17 18 19 21 22 21 19 19 18 20 21 22 23 23 22 21 19 16 14 10 9 6 6 8 11 13 17
12 11 10 11 11 12 11 10 10 10 10 10 11 11 13 14 14 14 15 15 16 18 19 20 20 20 20 20 21 21 20 19 17 14 10 9 9 9 11 14 16 17 20
14 14 13 12 11 13 13 13 12 12 13 12 12 12 11 10 12 14 14 14 15 15 16 17 18 18 19 21 22 21 19 17 13 11 11 12 12 13 16 18 19 20 22
19 15 14 14 13 13 14 15 15 15 16 15 16 17 18 18 16 15 14 14 15 15 15 14 15 15 16 18 18 17 15 15 14 13 14 15 17 18 20 21 22 22 24
21 19 15 15 16 14 14 14 14 14 14 13 14 16 16 17 18 17 17 16 16 15 14 15 16 17 17 18 18 17 15 14 15 17 18 20 20 20 21 23 24 25 27
21 22 20 16 13 15 15 15 15 14 13 12 12 12 14 16 17 19 20 19 18 15 15 15 16 17 19 20 20 19 19 19 18 19 21 21 21 22 24 26 28 29 28
21 19 19 20 19 16 15 16 16 16 16 15 15 15 15 16 17 19 19 18 16 16 16 17 16 17 18 20 21 22 22 21 21 23 26 23 22 24 26 29 32 33 33
22 20 18 16 15 16 18 18 17 16 16 16 17 16 18 18 17 17 17 17 16 15 16 17 19 20 20 21 23 24 25 25 25 25 25 26 28 29 31 34 36 38 36
26 25 24 22 21 19 18 17 15 15 15 15 16 18 19 20 19 19 19 18 17 16 17 17 19 21 23 25 26 27 28 27 27 29 29 31 32 34 35 41 39 43 37
30 28 28 26 26 27 26 26 25 24 22 20 18 17 17 20 22 23 22 22 21 21 21 21 23 23 25 27 29 31 31 32 31 32 33 36 38 44 49 46 43 51 52
35 31 29 27 25 25 25 25 28 31 30 28 27 26 26 24 21 20 21 24 25 25 25 26 27 29 29 30 31 31 33 34 34 38 36 40 47 48 53 48 46 56 49
34 32 31 30 28 25 23 21 22 24 28 30 30 29 28 27 27 26 25 24 23 25 27 28 29 29 31 32 32 34 35 37 30 33 39 46 47 51 54 51 55 57 48
36 32 30 28 25 23 22 20 19 20 23 24 27 29 29 27 28 27 26 24 24 26 28 30 30 29 29 29 31 30 34 38 37 33 39 42 49 55 54 58 52 54 29
33 30 29 29 30 31 30 27 24 20 19 18 18 21 24 27 26 26 26 26 26 26 26 29 30 30 31 31 30 31 32 35 37 37 41 44 46 51 52 51 52 34 22

GFSGL_700_spd_030.txt.gz
Wind_Speed
7 7 8 7 5 6 3 2 1 4 5 7 9 10 9 11 10 9 7 7 11 11 12 7 7 9 12 12 6 5 6 11 17 20 28 18 40 40 31 23 32 29 27
6 6 5 5 4 3 1 2 3 4 7 9 9 10 8 8 8 9 10 10 12 11 8 6 7 10 12 12 6 5 6 8 15 17 16 35 29 24 24 25 32 25 26
4 4 3 2 1 1 2 3 4 5 6 8 9 9 8 7 7 8 9 9 10 12 11 10 5 9 11 10 4 7 7 15 19 24 34 30 26 24 24 29 29 26 23
4 3 2 2 3 3 4 3 4 5 7 8 7 7 6 7 7 8 10 9 10 12 12 11 7 7 7 9 11 6 11 14 25 32 29 22 23 30 39 29 27 21 16
5 3 3 6 5 4 5 7 6 4 6 7 9 8 7 6 8 9 8 10 9 11 11 11 9 6 7 7 10 6 15 18 17 31 23 28 28 33 34 30 26 22 16
7 6 6 8 6 4 4 5 5 5 5 8 8 9 8 9 10 10 13 11 9 9 9 10 9 7 6 7 10 8 12 22 20 29 24 32 35 31 24 22 15 19 12
9 9 9 8 8 5 5 1 5 4 4 8 8 9 12 12 12 11 12 11 9 7 7 7 7 7 9 10 10 8 11 19 18 24 27 33 31 30 22 21 15 11 11
10 9 9 8 8 8 7 5 4 9 8 4 5 7 11 16 15 14 14 12 9 7 6 8 7 10 10 10 6 12 19 20 19 28 20 25 24 22 22 13 12 13 13
11 10 9 8 7 7 6 4 3 8 10 8 7 4 12 19 19 16 14 10 8 7 9 11 9 13 7 9 17 22 23 24 29 28 27 26 23 21 16 14 15 12 9
13 11 10 9 8 8 7 7 8 10 8 7 8 7 14 20 22 15 13 11 8 8 10 9 12 11 13 20 22 25 27 28 32 37 35 27 23 20 20 18 14 9 7
14 12 11 10 9 9 8 8 8 7 4 6 11 14 15 16 17 18 10 12 11 15 10 8 22 22 26 27 28 24 25 24 24 22 23 25 24 22 19 14 10 7 4
13 14 12 11 10 10 10 9 8 8 8 10 11 15 16 16 19 20 15 14 19 18 21 17 22 27 23 20 22 23 21 23 25 26 25 22 19 16 12 10 8 6 6
14 14 14 13 12 11 11 10 10 9 10 11 12 12 16 21 23 21 21 23 23 22 21 23 24 22 21 22 23 23 25 25 24 23 21 19 17 14 12 10 9 9 10
13 14 15 15 14 13 13 12 12 11 11 12 12 14 15 16 18 18 17 20 22 21 20 19 18 19 20 22 24 26 26 26 24 21 19 17 15 13 11 10 10 12 15
14 13 14 15 15 14 13 12 13 13 13 13 13 13 13 14 15 15 14 14 14 15 15 14 15 17 20 21 23 23 24 22 20 21 19 16 14 13 13 13 15 17 19
15 15 15 15 15 16 16 15 15 14 15 15 15 15 15 16 15 14 15 15 15 14 14 14 15 18 19 19 20 22 22 20 19 19 18 16 16 17 17 17 18 19 21
17 14 16 16 16 16 17 17 17 16 16 16 16 15 14 15 14 15 15 15 15 15 15 15 15 16 16 17 18 19 20 20 20 21 21 20 19 20 19 20 21 23 24
13 17 16 15 17 17 17 17 18 17 16 15 16 16 15 15 15 16 15 15 14 14 15 15 16 16 17 17 18 20 22 23 23 23 23 23 22 23 23 24 24 27 29
16 17 21 19 17 20 19 20 19 18 18 19 20 20 19 18 18 17 16 15 14 15 15 16 16 17 18 20 21 23 25 26 26 26 26 25 25 26 28 28 29 28 28
20 18 19 22 21 20 22 23 22 22 21 21 21 20 20 19 18 17 17 17 17 17 17 18 18 19 19 20 22 24 25 28 29 29 29 30 31 31 31 32 34 34 33
22 23 21 25 25 25 22 22 23 23 23 22 21 21 19 18 18 19 19 19 20 20 21 21 22 23 23 23 24 24 26 28 28 29 31 32 33 34 34 36 37 41 39
26 27 25 25 27 27 28 25 22 21 21 21 21 22 20 21 22 21 21 20 20 21 23 25 26 27 27 27 27 28 29 30 31 30 31 33 35 35 36 38 41 42 42
30 27 26 28 25 23 23 23 24 24 23 23 23 23 21 22 21 20 20 21 22 23 24 25 27 28 29 29 30 31 31 32 33 34 35 36 37 38 39 41 43 41 40
36 31 28 30 28 26 24 22 22 22 23 23 24 24 24 23 24 23 23 22 22 23 24 27 29 29 30 31 32 32 33 34 35 37 37 38 40 41 41 43 43 42 45
42 37 34 33 36 33 32 30 30 30 30 32 32 33 33 34 33 32 31 30 29 29 29 29 28 27 28 30 32 32 33 33 36 37 39 39 40 41 42 41 42 44 50
48 45 40 38 38 40 39 37 34 34 34 33 33 33 33 33 33 34 35 35 34 33 31 31 30 30 30 30 29 27 29 30 31 33 34 36 38 39 38 41 43 47 48

GFSGL_700_spd_033.txt.gz
Wind_Speed
8 7 8 6 6 7 6 3 2 2 3 3 7 8 9 8 7 5 5 4 6 9 7 10 5 7 13 12 9 10 14 15 16 21 21 18 5 23 23 39 37 33 29
5 7 5 4 4 5 3 1 1 2 3 5 7 8 8 8 7 5 5 6 10 8 5 2 4 7 13 10 7 3 9 12 13 19 14 13 25 19 40 33 27 21 29
5 5 2 3 2 3 2 1 2 3 4 7 6 7 7 7 7 6 6 7 8 8 2 2 9 9 9 10 3 3 7 11 15 15 14 14 29 41 31 25 30 21 26
3 3 2 2 2 1 1 2 3 4 4 6 7 6 5 5 6 7 6 6 8 8 4 6 9 8 5 6 1 5 5 11 13 19 20 35 35 34 20 31 26 29 26
2 1 1 4 4 1 4 4 3 4 7 7 7 6 4 5 5 6 7 6 7 7 7 4 3 4 3 4 5 5 2 14 24 29 33 30 24 32 30 29 28 24 22
4 2 4 5 4 3 2 5 4 3 5 7 7 8 6 4 6 8 10 11 9 7 6 6 5 3 4 5 4 7 10 20 28 24 21 21 27 32 29 27 24 19 19
5 4 4 5 5 3 3 6 5 2 4 7 6 7 8 8 8 10 10 10 10 8 7 6 4 3 4 8 5 9 16 17 20 15 22 22 36 26 29 24 22 19 12
7 6 5 7 5 6 5 5 6 7 5 4 4 6 9 11 12 11 10 10 8 7 7 7 6 5 6 6 4 12 19 16 21 18 24 29 28 25 22 19 20 18 17
8 7 5 6 6 6 4 4 5 7 7 3 2 6 14 14 12 12 12 9 5 5 6 7 8 7 7 3 9 20 22 18 19 21 24 29 19 23 18 17 18 18 14
9 8 6 5 5 7 6 6 5 5 8 6 6 4 18 20 15 12 10 6 4 3 4 6 7 7 8 10 14 19 17 22 25 27 23 27 24 28 18 18 15 11 8
11 9 7 4 4 7 8 7 4 1 5 10 10 9 15 20 17 11 8 7 5 6 4 7 12 12 16 18 20 17 23 27 27 29 32 26 22 18 18 16 13 11 7
11 11 9 6 5 6 8 8 7 7 8 11 13 12 16 16 15 11 8 11 14 10 9 20 23 29 28 28 29 30 30 31 30 28 23 21 22 20 18 14 11 5 2
10 10 10 9 7 6 7 8 9 10 12 10 10 10 13 18 16 13 14 19 18 17 17 21 24 22 20 23 22 23 22 21 22 23 23 21 19 16 12 10 8 7 8
9 10 10 10 9 8 7 7 8 11 12 11 11 9 13 17 17 16 20 24 22 21 22 23 20 18 19 18 19 21 23 23 22 21 20 18 15 13 11 10 10 11 11
10 10 10 10 10 10 10 9 9 10 11 11 9 12 13 15 14 15 18 18 17 18 17 15 14 15 16 18 20 20 22 22 20 18 17 16 15 14 13 13 13 13 15
13 12 11 11 10 11 11 11 10 10 10 11 13 15 15 16 14 14 14 14 14 14 13 13 14 15 16 17 18 19 20 20 20 18 18 18 17 15 15 15 16 17 20
13 12 13 13 12 11 11 11 11 12 12 12 11 11 11 12 14 15 15 16 16 15 14 14 15 16 17 17 18 19 20 20 19 20 20 20 20 18 19 20 21 22 23
11 14 13 14 13 13 12 12 12 13 13 13 12 11 11 11 11 12 13 14 14 14 14 13 13 15 16 17 17 18 20 22 22 22 21 21 22 23 24 24 24 25 26
10 10 16 15 15 16 15 15 14 15 15 16 17 16 15 15 15 15 14 13 12 13 13 12 13 14 15 16 17 18 20 22 21 23 23 24 25 26 28 27 27 30 31
14 13 10 14 18 16 18 18 19 19 18 19 19 18 18 19 18 16 15 15 15 15 16 16 16 16 17 17 18 19 21 23 24 23 25 28 29 29 30 32 32 34 37
19 17 16 15 14 20 19 17 20 21 21 20 19 19 18 17 17 18 19 19 20 20 20 20 20 20 20 20 21 22 22 24 25 25 26 28 31 32 32 34 37 37 42
27 23 20 19 18 17 21 23 20 20 22 22 21 22 19 19 21 21 20 21 21 22 23 24 25 26 25 26 26 26 27 28 28 28 28 29 30 32 33 35 36 39 43
35 31 27 23 23 20 20 23 25 24 22 22 23 23 21 20 22 21 20 19 19 21 22 25 26 27 28 28 29 29 30 30 31 31 32 32 33 34 36 37 38 38 45
37 35 33 29 25 26 22 21 24 25 27 26 25 24 24 21 22 21 20 19 18 19 21 24 26 26 27 28 30 30 31 31 31 33 34 34 35 34 36 39 40 38 41
36 38 37 36 30 27 27 24 22 22 21 22 22 22 23 24 22 23 24 25 25 25 25 25 25 24 25 26 28 31 32 33 32 32 34 35 36 35 36 40 38 40 41
35 39 41 40 39 34 32 31 29 28 28 28 28 28 29 30 31 32 29 30 31 32 32 32 30 28 30 29 29 29 29 30 29 28 29 30 33 33 33 36 37 38 38